Orbital Elements at Epoch 2459200.5 (2020-Dec-17.0) TDB
Reference: JPL 21 (heliocentric ecliptic J2000)
Element | Value | Uncertainty (1-sigma) | Units |
e | .08016451300394976 | 6.1154e-08 | |
a | 2.719860911007487 | 1.588e-08 | au |
q | 2.501824585638093 | 1.6372e-07 | au |
i | 2.730628030904557 | 5.5995e-06 | deg |
node | 159.5999294575808 | 0.00010058 | deg |
peri | 224.3630351787017 | 0.00010447 | deg |
M | 192.0485352210281 | 2.864e-05 | deg |
tp | 2459964.863191796573 (2023-Jan-20.36319180) | 0.00013188 | TDB |
period | 1638.394457642258 4.49 | 1.4349e-05 3.929e-08 | d yr |
n | .2197273057906094 | 1.9243e-09 | deg/d |
Q | 2.937897236376881 | 1.7153e-08 | au |
|
| | Orbit Determination Parameters
Additional Information
|